Showing default

HAWK-13B, 67396

Orbit data source: Space-Track

HAWK-13B, 67396 is a payload satellite owned by HawkEye 360 (US) in SSO that was launched on Sun, 11 Jan 2026 UTC via an FALCON 9 launch vehicle from the Air Force Western Test Range (AFWTR). Payload-class satellites include a variety of spacecraft equipped with specific instruments for various scientific and technological missions. These include communications satellites like Starlink; space stations such as the ISS; scientific satellites like the Hubble; Earth observation satellites from companies like Planet Labs, Umbra, and HawkEye 360; GPS; miniature CubeSats for education and research; and military/defense satellites.

Loading next visibility...
Identifier
67396, 2026-004AK
Orbit
SSO
Country
Flag of USUS
Related business
Manufacturer
UTIAS-SFL
Mission
Operational Commercial Sigint
Bus & Motor
HAWK2G, Unknown motor
Mass
31 kg wet, 30 kg dry
Launch date (UTC)
2026-01-11 (4 months ago)
Launch vehicle
FALCON 9
Launch site
Air Force Western Test Range (AFWTR)
Object type
Payload
Rocket body
Debris
Shape & HBR
Box + 2 Pan, 1.0 m
Radar Cross Section
0.240 m²

Expand to show TLE details & history
Last TLE update: 7 hours ago

TLE from 7 hours ago
0 HAWK-13B
1 67396U 26004AK  26146.52221882  .00004440  00000-0  21570-3 0  9992
2 67396  97.4520 145.9013 0008299  59.3514 300.8538 15.18930868 20477
Epoch: 2026-05-26T12:31Z
TLE epoch observation values (Epoch: 2026-05-26T12:31:59.706Z)
Latitude
0.00005°
Longitude
73.80807°
Altitude
509.23 km
Speed
7.611 km/s
True Right ascension
09h 43m 36s
True Declination
0° 00' 00"
Sunlit
Object was in daylight at epoch
Visualization orbit readout
Latitude
Unknown
Longitude
Unknown
Altitude
Unknown
Speed
Unknown
Apparent Right ascension
Unknown
Apparent Declination
Unknown
Sunlit
N/A
Visualization observer readout
Local Sidereal Time
04:32:33
Azimuth
Unknown
Elevation
Unknown
Doppler factor
Unknown
Orbital elements
Apogee altitude
511.753 km
Perigee altitude
500.327 km
Semi-major axis
6,884.177 km
Eccentricity
0.00083
Inclination
97.452°
RAAN
145.9013°
Arg. of periapsis
59.3514°
True anomaly
300.77212°
Mean anomaly
300.8538°
Eccentric anomaly
300.81296°
Mean motion
3.79984 °/min
Orbital period
94.74 mins
BSTAR
0.0002157
Loading maneuver chart data...
Computing Atmospheric mass density...
Loading historical data...
Loading historical data...
Loading historical data...
Loading historical data...
Loading historical data...
Loading historical data...
Loading historical data...

Documentation

Showing up to 5 results
|